Content
SEND FEEDBACK

Daily
Averages
Monthly
Summary
United States of America

ASHEVILLE, NORTH CAROLINA


Home > North America > United States > North Carolina
Elevation: 2240 feet     Latitude: 35 36N     Longitude: 082 32W

WEATHER
 
SELECT A DAY
Number of Records: 226,157;   Date Range: 1/1/95 - 8/17/14
 
SHARE

PRINT THIS DATA

[ ← Previous Day ]
WEATHER ALMANAC - SEPTEMBER 18, 2013
[ Next Day → ]
[ °C ]   °F
Weather ElementAverageHighLow
Temperature61.9 °F66.9 °F (3:54 pm)57 °F (6:54 am)
Dewpoint55.9 °F60.8 °F (9:14 pm)52 °F (9:54 am)
Humidity81.3 %97 % (10:54 pm)68 % (12:27 pm)
Barometer30.24 in30.30 in (12:27 pm)30.19 in (3:54 pm)
Wind Speed3.1 mph9.2 mph (8:54 am)
Weather ElementAverage
Visibility9.2 mi
Wind DirectionESE (98.5 °)

Weather ElementTotal
Precipitation0.02 in
Heating Degree Days3.1 (Base 65)
Growing Degree Days12 (Base 50)
Averaged from 26 records on September 18, 2013
WEATHER CONDITIONS BREAKOUT
WIND DIRECTION BREAKOUT
WEATHER BY HOUR - SEPTEMBER 18, 2013
[ °C ]   °F
Local TimeTemperatureDewpointHumidityBarometerVisibilityWind DirectionWind SpeedGust SpeedPrecipitationEventsConditions
1:54 AM61.0 °F55.0 °F81 %30.26 in10.0 miCalmOvercast
2:54 AM61.0 °F54.0 °F78 %30.26 in10.0 miSSW (200°)3.5 mphOvercast
3:54 AM60.1 °F55.0 °F83 %30.25 in10.0 miSouth (170°)3.5 mphOvercast
4:54 AM60.1 °F55.0 °F83 %30.24 in10.0 miCalmOvercast
5:54 AM60.1 °F54.0 °F80 %30.25 in10.0 miSSE (160°)3.5 mphMostly Cloudy
6:54 AM57.0 °F53.1 °F87 %30.27 in10.0 miSSE (160°)3.5 mphMostly Cloudy
7:54 AM57.0 °F53.1 °F87 %30.27 in10.0 miSouth (170°)5.8 mphMostly Cloudy
8:54 AM57.9 °F53.1 °F84 %30.27 in10.0 miSSE (160°)9.2 mphOvercast
9:54 AM60.1 °F52.0 °F75 %30.29 in10.0 miSSE (150°)6.9 mphOvercast
10:54 AM61.0 °F52.0 °F72 %30.28 in10.0 miSouth (180°)4.6 mphOvercast
11:54 AM62.1 °F53.1 °F72 %30.27 in10.0 miVariable3.5 mphOvercast
12:27 PM64.4 °F53.6 °F68 %30.30 in10.0 miSSE (150°)5.8 mphOvercast
12:54 PM64.0 °F54.0 °F70 %30.24 in10.0 miSSW (200°)4.6 mphOvercast
1:54 PM64.9 °F54.0 °F68 %30.23 in10.0 miVariable3.5 mphOvercast
2:54 PM66.0 °F55.0 °F68 %30.22 in10.0 miSouth (180°)3.5 mphOvercast
3:54 PM66.9 °F55.9 °F68 %30.19 in10.0 miVariable3.5 mphOvercast
4:54 PM66.0 °F57.0 °F73 %30.19 in10.0 miSE (140°)4.6 mphOvercast
5:54 PM64.0 °F57.0 °F78 %30.19 in10.0 miSE (140°)3.5 mphOvercast
6:35 PM62.6 °F59.0 °F88 %30.24 in1.5 miCalm0.01 inRainLight Rain
6:54 PM62.1 °F59.0 °F90 %30.20 in3.0 miCalm0.01 inOvercast
7:54 PM62.1 °F60.1 °F93 %30.19 in6.0 miCalm0.00 inOvercast
8:54 PM62.1 °F59.0 °F90 %30.20 in10.0 miCalmOvercast
9:14 PM62.6 °F60.8 °F94 %30.24 in10.0 miSSW (210°)3.5 mphOvercast
9:54 PM62.1 °F60.1 °F93 %30.20 in10.0 miSouth (190°)3.5 mphOvercast
10:54 PM61.0 °F60.1 °F97 %30.21 in10.0 miCalmOvercast
11:54 PM61.0 °F59.0 °F93 %30.21 in9.0 miCalmMostly Cloudy
Hourly data recorded from KAVL, located miles away from Asheville, North Carolina







STORIES FROM OUR PARTNERS